Weather History for Marysville, CA

Change the Weather History Date:

Thursday, January 3, 2013

  Actual Average Record
Temperature  
Mean Temperature 40 °F -  
Max Temperature 53 °F 51 °F - (-1)
Min Temperature 28 °F 34 °F - (-1)
Degree Days  
Heating Degree Days 24    
Moisture  
Dew Point 32 °F    
Average Humidity 79    
Maximum Humidity 96    
Minimum Humidity 48    
Precipitation  
Precipitation 0.00 in - - ()
Sea Level Pressure  
Sea Level Pressure 30.26 in    
Wind  
Wind Speed 1 mph (NW)    
Max Wind Speed 5 mph    
Max Gust Speed -    
Visibility 8 miles    
Events      
Averages and records for this station are not official NWS values.
T = Trace of Precipitation, MM = Missing Value Source: NWS Daily Summary

Daily Weather History Graph

Daily Weather History Graph

Search for Another Location

Airport:

Trip Planner

Search our weather history database for the weather conditions in past years. The results will help you decide how hot, cold, wet, or windy it might be!

Date:

Astronomy

Jan. 03, 2013 Rise Set
Actual Time 7:25 AM PST 4:56 PM PST
Civil Twilight 6:55 AM PST 5:26 PM PST
Nautical Twilight 6:22 AM PST 5:59 PM PST
Astronomical Twilight 5:50 AM PST 6:32 PM PST
Moon 11:34 PM PST (1/3) 10:43 AM PST (1/3)
Length of Visible Light 10h 30m
Length of Day
9h 30m
Waning Gibbous, 64% of the Moon is Illuminated
Jan 3
Waning Gibbous
Jan 4
Last Quarter
Jan 11
New
Jan 18
First Quarter
Jan 26
Full

Hourly Weather History & Observations

Time (PST) Temp. Windchill Dew Point Humidity Pressure Visibility Wind Dir Wind Speed Gust Speed Precip Events Conditions
12:53 AM 30.9 °F - 30.0 °F 96% 30.21 in 2.0 mi Calm Calm - N/A   Clear
1:04 AM 33.8 °F - 32.0 °F 93% 30.20 in 7.0 mi Calm Calm - N/A   Clear
1:53 AM 33.1 °F 30.0 °F 30.9 °F 92% 30.22 in 10.0 mi ENE 3.5 mph - N/A   Clear
2:53 AM 30.0 °F - 28.0 °F 92% 30.23 in 10.0 mi Calm Calm - N/A   Clear
3:53 AM 30.0 °F - 28.0 °F 92% 30.23 in 7.0 mi Calm Calm - N/A   Clear
4:53 AM 30.9 °F - 28.9 °F 92% 30.21 in 6.0 mi Calm Calm - N/A   Clear
5:53 AM 28.0 °F 24.2 °F 25.0 °F 88% 30.23 in 8.0 mi NW 3.5 mph - N/A   Clear
6:53 AM 28.0 °F - 27.0 °F 96% 30.24 in 5.0 mi Calm Calm - N/A   Clear
7:53 AM 30.0 °F - 28.0 °F 92% 30.25 in 6.0 mi Calm Calm - N/A   Clear
8:53 AM 34.0 °F - 33.1 °F 96% 30.28 in 5.0 mi Calm Calm - N/A   Clear
9:53 AM 42.1 °F - 34.0 °F 73% 30.30 in 10.0 mi Calm Calm - N/A   Clear
10:53 AM 45.0 °F - 34.0 °F 65% 30.30 in 10.0 mi Calm Calm - N/A   Clear
11:53 AM 48.9 °F - 32.0 °F 52% 30.28 in 10.0 mi Calm Calm - N/A   Clear
12:53 PM 50.0 °F - 30.9 °F 48% 30.26 in 10.0 mi Calm Calm - N/A   Mostly Cloudy
1:53 PM 52.0 °F - 33.1 °F 49% 30.25 in 10.0 mi SW 3.5 mph - N/A   Overcast
2:53 PM 53.1 °F - 36.0 °F 52% 30.25 in 10.0 mi WNW 3.5 mph - N/A   Partly Cloudy
3:53 PM 52.0 °F - 35.1 °F 53% 30.25 in 10.0 mi Calm Calm - N/A   Clear
4:53 PM 45.0 °F 42.6 °F 34.0 °F 65% 30.26 in 10.0 mi NNW 4.6 mph - N/A   Clear
5:53 PM 44.1 °F 42.5 °F 34.0 °F 68% 30.27 in 10.0 mi NNW 3.5 mph - N/A   Clear
6:53 PM 39.0 °F - 34.0 °F 82% 30.28 in 10.0 mi Calm Calm - N/A   Clear
7:53 PM 37.0 °F - 34.0 °F 89% 30.28 in 10.0 mi Calm Calm - N/A   Clear
8:53 PM 35.1 °F - 32.0 °F 89% 30.29 in 9.0 mi Calm Calm - N/A   Clear
9:53 PM 33.1 °F 30.0 °F 30.9 °F 92% 30.30 in 8.0 mi WNW 3.5 mph - N/A   Clear
10:53 PM 35.1 °F - 32.0 °F 89% 30.30 in 9.0 mi Calm Calm - N/A   Clear
11:53 PM 34.0 °F - 32.0 °F 92% 30.30 in 7.0 mi Calm Calm - N/A   Clear